Location: Sungai Apap
(2.6167°N, 113.3833°E)
Time: 14:26:47
(UTC+00:00)

Cosmos 1892 Rocket - Pass Details

Date: 08 August 2024
Orbit: 602 x 628 km, 82.5° (Epoch: 17 September)

Event Time Altitude Azimuth Distance (km) Brightness Sun altitude
Rises 11:09:09 0° 157° (SSE) 2,908 6.6 -8.2°
Reaches altitude 10° 11:11:55 10° 140° (SE) 1,996 5.7 -8.8°
Maximum altitude 11:15:06 20° 93° (E) 1,465 4.9 -9.6°
Drops below altitude 10° 11:18:15 10° 47° (NE) 1,980 5.9 -10.3°
Sets 11:20:58 0° 30° (NNE) 2,878 6.9 -11.0°
